When you browse on this site, cookies collect data to enhance your experience and personalize the content and advertising you see.
Visit our Privacy Policy to learn more. By continuing to use the site, you agree to this use of cookies and data.
  • In Netherlands
  • List of Countries
  • For 7 days
  • Water Temperature
  • Satellite Maps
  • Weather Map
  • Weather Widgets
  • user-avatar
    Login

    Hourly Weather Molepolole

    Today, 27 May, Monday

    Time Temperature Precipitation Wind Pressure Humidity
    00:00 +13°C° 0 mm 0 mps 667 mmHg 47%
    01:00 +13°C° 0 mm 0 mps 667 mmHg 48%
    02:00 +12°C° 0 mm 0 mps 667 mmHg 49%
    03:00 +12°C° 0 mm 0 mps 667 mmHg 51%
    04:00 +11°C° 0 mm 0 mps 667 mmHg 52%
    05:00 +11°C° 0 mm 0 mps 666 mmHg 53%
    06:00 +12°C° 0 mm 0 mps 667 mmHg 51%
    07:00 +14°C° 0 mm 1 mps 667 mmHg 49%
    08:00 +14°C° 0 mm 1 mps 668 mmHg 47%
    09:00 +16°C° 0 mm 1 mps 668 mmHg 42%
    10:00 +20°C° 0 mm 1 mps 669 mmHg 36%
    11:00 +22°C° 0 mm 1 mps 669 mmHg 31%
    12:00 +23°C° 0 mm 1 mps 669 mmHg 28%
    13:00 +23°C° 0 mm 2 mps 668 mmHg 25%
    14:00 +24°C° 0 mm 2 mps 668 mmHg 22%
    15:00 +24°C° 0 mm 2 mps 668 mmHg 23%
    16:00 +23°C° 0 mm 2 mps 667 mmHg 23%
    17:00 +23°C° 0 mm 2 mps 667 mmHg 24%
    18:00 +21°C° 0 mm 2 mps 667 mmHg 26%
    19:00 +19°C° 0 mm 2 mps 667 mmHg 27%
    20:00 +18°C° 0 mm 2 mps 667 mmHg 29%
    21:00 +19°C° 0 mm 1 mps 667 mmHg 30%
    22:00 +18°C° 0 mm 1 mps 666 mmHg 31%
    23:00 +16°C° 0 mm 1 mps 666 mmHg 33%

    Tomorrow, 28 May, Tuesday

    Time Temperature Precipitation Wind Pressure Humidity
    00:00 +16°C° 0 mm 1 mps 666 mmHg 35%
    01:00 +15°C° 0 mm 1 mps 666 mmHg 37%
    02:00 +14°C° 0 mm 1 mps 666 mmHg 40%
    03:00 +14°C° 0 mm 1 mps 666 mmHg 42%
    04:00 +13°C° 0 mm 1 mps 666 mmHg 44%
    05:00 +11°C° 0 mm 0 mps 666 mmHg 46%
    06:00 +12°C° 0 mm 0 mps 666 mmHg 45%
    07:00 +14°C° 0 mm 1 mps 667 mmHg 44%
    08:00 +15°C° 0 mm 1 mps 668 mmHg 43%
    09:00 +18°C° 0 mm 1 mps 668 mmHg 39%
    10:00 +20°C° 0 mm 1 mps 668 mmHg 34%
    11:00 +21°C° 0 mm 2 mps 669 mmHg 30%
    12:00 +23°C° 0 mm 2 mps 668 mmHg 27%
    13:00 +24°C° 0 mm 2 mps 668 mmHg 25%
    14:00 +24°C° 0 mm 2 mps 667 mmHg 23%
    15:00 +24°C° 0 mm 2 mps 667 mmHg 24%
    16:00 +24°C° 0 mm 1 mps 666 mmHg 24%
    17:00 +23°C° 0 mm 1 mps 666 mmHg 25%
    18:00 +21°C° 0 mm 2 mps 666 mmHg 27%
    19:00 +19°C° 0 mm 2 mps 666 mmHg 29%
    20:00 +17°C° 0 mm 2 mps 666 mmHg 31%
    21:00 +17°C° 0 mm 2 mps 666 mmHg 32%
    22:00 +16°C° 0 mm 1 mps 666 mmHg 34%
    23:00 +16°C° 0 mm 1 mps 667 mmHg 35%

    Day after tomorrow, 29 May, Wednesday

    Time Temperature Precipitation Wind Pressure Humidity
    00:00 +15°C° 0 mm 1 mps 666 mmHg 37%
    01:00 +14°C° 0 mm 1 mps 666 mmHg 39%
    02:00 +14°C° 0 mm 1 mps 666 mmHg 41%
    03:00 +12°C° 0 mm 0 mps 666 mmHg 42%
    04:00 +12°C° 0 mm 0 mps 665 mmHg 44%
    05:00 +11°C° 0 mm 0 mps 665 mmHg 46%
    06:00 +12°C° 0 mm 0 mps 666 mmHg 45%
    07:00 +14°C° 0 mm 1 mps 667 mmHg 43%
    08:00 +15°C° 0 mm 1 mps 668 mmHg 42%
    09:00 +18°C° 0 mm 1 mps 668 mmHg 37%
    10:00 +19°C° 0 mm 2 mps 669 mmHg 31%
    11:00 +23°C° 0 mm 2 mps 669 mmHg 26%
    12:00 +23°C° 0 mm 2 mps 669 mmHg 24%
    13:00 +24°C° 0 mm 2 mps 668 mmHg 22%
    14:00 +25°C° 0 mm 2 mps 667 mmHg 20%
    15:00 +24°C° 0 mm 2 mps 667 mmHg 21%
    16:00 +24°C° 0 mm 2 mps 667 mmHg 21%
    17:00 +23°C° 0 mm 2 mps 666 mmHg 22%
    18:00 +21°C° 0 mm 2 mps 666 mmHg 25%
    19:00 +19°C° 0 mm 2 mps 666 mmHg 27%
    20:00 +17°C° 0 mm 2 mps 666 mmHg 29%
    21:00 +18°C° 0 mm 1 mps 667 mmHg 30%
    22:00 +16°C° 0 mm 1 mps 667 mmHg 32%
    23:00 +16°C° 0 mm 1 mps 667 mmHg 33%

    30 May, Thursday

    Time Temperature Precipitation Wind Pressure Humidity
    00:00 +15°C° 0 mm 1 mps 667 mmHg 34%
    01:00 +15°C° 0 mm 1 mps 666 mmHg 35%
    02:00 +14°C° 0 mm 1 mps 666 mmHg 37%
    03:00 +14°C° 0 mm 1 mps 666 mmHg 39%
    04:00 +13°C° 0 mm 1 mps 666 mmHg 42%
    05:00 +11°C° 0 mm 0 mps 665 mmHg 45%
    06:00 +13°C° 0 mm 1 mps 666 mmHg 44%
    07:00 +14°C° 0 mm 1 mps 667 mmHg 42%
    08:00 +14°C° 0 mm 2 mps 667 mmHg 40%
    09:00 +16°C° 0 mm 3 mps 668 mmHg 37%
    10:00 +19°C° 0 mm 3 mps 668 mmHg 34%
    11:00 +21°C° 0 mm 4 mps 669 mmHg 32%
    12:00 +22°C° 0 mm 3 mps 668 mmHg 29%
    13:00 +22°C° 0 mm 3 mps 668 mmHg 26%
    14:00 +24°C° 0 mm 2 mps 667 mmHg 23%
    15:00 +24°C° 0 mm 2 mps 667 mmHg 24%
    16:00 +24°C° 0 mm 1 mps 667 mmHg 25%
    17:00 +23°C° 0 mm 1 mps 666 mmHg 26%
    18:00 +21°C° 0 mm 1 mps 666 mmHg 29%
    19:00 +20°C° 0 mm 1 mps 666 mmHg 31%
    20:00 +17°C° 0 mm 2 mps 666 mmHg 34%
    21:00 +17°C° 0 mm 2 mps 666 mmHg 36%
    22:00 +16°C° 0 mm 2 mps 666 mmHg 39%
    23:00 +15°C° 0 mm 1 mps 666 mmHg 41%

    31 May, Friday

    Time Temperature Precipitation Wind Pressure Humidity
    00:00 +15°C° 0 mm 2 mps 666 mmHg 44%
    01:00 +15°C° 0 mm 2 mps 665 mmHg 47%
    02:00 +14°C° 0 mm 2 mps 665 mmHg 50%
    03:00 +14°C° 0 mm 2 mps 665 mmHg 53%
    04:00 +13°C° 0 mm 1 mps 665 mmHg 56%
    05:00 +13°C° 0 mm 1 mps 664 mmHg 59%
    06:00 +13°C° 0 mm 1 mps 665 mmHg 58%
    07:00 +14°C° 0 mm 1 mps 665 mmHg 56%
    08:00 +15°C° 0 mm 1 mps 666 mmHg 54%
    09:00 +18°C° 0 mm 1 mps 667 mmHg 47%
    10:00 +19°C° 0 mm 2 mps 667 mmHg 40%
    11:00 +23°C° 0 mm 2 mps 668 mmHg 32%
    12:00 +24°C° 0 mm 1 mps 667 mmHg 29%
    13:00 +25°C° 0 mm 1 mps 666 mmHg 25%
    14:00 +24°C° 0 mm 0 mps 666 mmHg 22%
    15:00 +23°C° 0 mm 0 mps 666 mmHg 23%
    16:00 +25°C° 0 mm 1 mps 665 mmHg 24%
    17:00 +24°C° 0 mm 1 mps 665 mmHg 26%
    18:00 +23°C° 0 mm 1 mps 665 mmHg 27%
    19:00 +21°C° 0 mm 1 mps 665 mmHg 29%
    20:00 +19°C° 0 mm 1 mps 664 mmHg 31%
    21:00 +19°C° 0 mm 1 mps 665 mmHg 32%
    22:00 +17°C° 0 mm 2 mps 665 mmHg 33%
    23:00 +17°C° 0 mm 2 mps 665 mmHg 33%

    1 June, Saturday

    Time Temperature Precipitation Wind Pressure Humidity
    00:00 +17°C° 0 mm 2 mps 665 mmHg 33%
    01:00 +17°C° 0 mm 2 mps 665 mmHg 32%
    02:00 +17°C° 0 mm 2 mps 665 mmHg 32%
    03:00 +17°C° 0 mm 2 mps 665 mmHg 32%
    04:00 +17°C° 0 mm 2 mps 665 mmHg 32%
    05:00 +17°C° 0 mm 2 mps 665 mmHg 32%
    06:00 +17°C° 0 mm 2 mps 665 mmHg 33%
    07:00 +18°C° 0 mm 1 mps 666 mmHg 34%
    08:00 +18°C° 0 mm 1 mps 666 mmHg 35%
    09:00 +19°C° 0 mm 2 mps 667 mmHg 30%
    10:00 +21°C° 0 mm 3 mps 667 mmHg 26%
    11:00 +25°C° 0 mm 3 mps 668 mmHg 22%
    12:00 +26°C° 0 mm 3 mps 667 mmHg 21%
    13:00 +26°C° 0 mm 3 mps 667 mmHg 19%
    14:00 +27°C° 0 mm 3 mps 666 mmHg 18%
    15:00 +27°C° 0 mm 2 mps 666 mmHg 19%
    16:00 +26°C° 0 mm 2 mps 666 mmHg 20%
    17:00 +26°C° 0 mm 1 mps 666 mmHg 21%
    18:00 +24°C° 0 mm 1 mps 666 mmHg 23%
    19:00 +21°C° 0 mm 2 mps 666 mmHg 24%
    20:00 +20°C° 0 mm 2 mps 666 mmHg 26%
    21:00 +19°C° 0 mm 2 mps 666 mmHg 27%
    22:00 +18°C° 0 mm 2 mps 666 mmHg 28%
    23:00 +17°C° 0 mm 2 mps 666 mmHg 30%
    Show more